Weather History for KGUY - October, 2011

Change the Weather History Date:

Thursday, October 20, 2011

  Actual Average Record
Temperature  
Mean Temperature 52 °F 56 °F  
Max Temperature 70 °F 70 °F 93 °F (2007)
Min Temperature 33 °F 41 °F 30 °F (1999)
Degree Days  
Heating Degree Days 13 10  
Month to date heating degree days 95 138  
Since 1 July heating degree days 118 181  
Cooling Degree Days 0 0  
Month to date cooling degree days 47 25  
Year to date cooling degree days 2159 1479  
Growing Degree Days 2 (Base 50)    
Moisture  
Dew Point 27 °F    
Average Humidity 44    
Maximum Humidity 64    
Minimum Humidity 23    
Precipitation  
Precipitation 0.00 in 0.06 in 0.01 in (2002)
Month to date precipitation 0.44 1.15  
Year to date precipitation 6.46 17.71  
Snow  
Snow 0.00 in - - ()
Month to date snowfall 0.0  
Since 1 July snowfall 0.0  
Since 1 September snowfall 0.0  
Snow Depth 0.00 in    
Sea Level Pressure  
Sea Level Pressure 29.97 in    
Wind  
Wind Speed 3 mph (South)    
Max Wind Speed 10 mph    
Max Gust Speed 14 mph    
Visibility 10 miles    
Events      
T = Trace of Precipitation, MM = Missing Value Source: NWS Daily Summary

Daily Weather History Graph

Daily Weather History Graph

Search for Another Location

Airport or City:

Trip Planner

Search our weather history database for the weather conditions in past years. The results will help you decide how hot, cold, wet, or windy it might be!

Date:

Astronomy

Oct. 20, 2011 Rise Set
Actual Time 7:57 AM CDT 7:03 PM CDT
Civil Twilight 7:31 AM CDT 7:29 PM CDT
Nautical Twilight 7:01 AM CDT 7:59 PM CDT
Astronomical Twilight 6:31 AM CDT 8:29 PM CDT
Moon 12:56 AM CDT (10/20) 3:03 PM CDT (10/20)
Length of Visible Light 11h 57m
Length of Day
11h 05m
Last Quarter, 44% of the Moon is Illuminated
Oct 20
Last Quarter
Oct 26
New
Nov 2
First Quarter
Nov 10
Full
Nov 18
Last Quarter

Hourly Weather History & Observations

Time (CDT) Temp. Windchill Dew Point Humidity Pressure Visibility Wind Dir Wind Speed Gust Speed Precip Events Conditions
12:53 AM 41.0 °F 39.0 °F 24.1 °F 51% 30.01 in 10.0 mi South 3.5 mph - N/A   Clear
1:53 AM 39.0 °F - 23.0 °F 53% 30.00 in 10.0 mi Calm Calm - N/A   Clear
2:53 AM 39.0 °F - 24.1 °F 55% 29.99 in 10.0 mi Calm Calm - N/A   Clear
3:53 AM 39.9 °F 37.8 °F 24.1 °F 53% 29.98 in 10.0 mi SE 3.5 mph - N/A   Clear
4:53 AM 37.9 °F 34.4 °F 24.1 °F 57% 29.94 in 10.0 mi SE 4.6 mph - N/A   Clear
5:53 AM 37.9 °F 33.5 °F 24.1 °F 57% 29.93 in 10.0 mi SSE 5.8 mph - N/A   Clear
6:53 AM 36.0 °F - 25.0 °F 64% 29.95 in 10.0 mi Calm Calm - N/A   Clear
7:53 AM 36.0 °F 33.3 °F 25.0 °F 64% 29.95 in 10.0 mi SE 3.5 mph - N/A   Clear
8:53 AM 37.0 °F - 26.1 °F 65% 29.97 in 10.0 mi Calm Calm - N/A   Clear
9:53 AM 44.1 °F 42.5 °F 27.0 °F 51% 29.97 in 10.0 mi South 3.5 mph - N/A   Clear
10:53 AM 51.1 °F - 28.0 °F 41% 29.96 in 10.0 mi South 3.5 mph - N/A   Clear
11:53 AM 55.0 °F - 28.9 °F 37% 29.95 in 10.0 mi Variable 3.5 mph - N/A   Clear
12:53 PM 59.0 °F - 28.9 °F 32% 29.94 in 10.0 mi Calm Calm - N/A   Clear
1:53 PM 64.0 °F - 30.0 °F 28% 29.92 in 10.0 mi North 6.9 mph - N/A   Clear
3:53 PM 66.9 °F - 30.0 °F 25% 29.91 in 10.0 mi Calm Calm - N/A   Clear
4:53 PM 69.1 °F - 30.0 °F 23% 29.91 in 10.0 mi Variable 3.5 mph - N/A   Clear
5:53 PM 69.1 °F - 30.0 °F 23% 29.92 in 10.0 mi NE 3.5 mph - N/A   Clear
8:53 PM 54.0 °F - 30.0 °F 40% 30.01 in 10.0 mi South 4.6 mph - N/A   Clear
9:53 PM 50.0 °F - 30.0 °F 46% 30.02 in 10.0 mi SW 5.8 mph - N/A   Clear
10:53 PM 46.0 °F 42.5 °F 28.9 °F 51% 30.03 in 10.0 mi SW 6.9 mph - N/A   Clear
11:53 PM 46.9 °F - 28.9 °F 50% 30.04 in 10.0 mi West 3.5 mph - N/A   Clear